Content
SEND FEEDBACK

Daily
Averages
Monthly
Summary
United States of America

ST. LOUIS, MISSOURI


Home > North America > United States > Missouri
Elevation: 535 feet     Latitude: 38 45N     Longitude: 090 22W

WEATHER
 
SELECT A DAY
Number of Records: 196,446;   Date Range: 1/1/95 - 8/12/14
 
SHARE

PRINT THIS DATA

[ ← Previous Day ]
WEATHER ALMANAC - JANUARY 11, 2013
[ Next Day → ]
[ °C ]   °F
Weather ElementAverageHighLow
Temperature56.1 °F64 °F (2:54 pm)51.1 °F (2:54 am)
Dewpoint46.4 °F50 °F (1:54 am)45 °F (3:54 pm)
Humidity71.1 %89 % (1:54 am)52 % (2:54 pm)
Barometer29.82 in29.87 in (7:54 am)29.76 in (3:54 pm)
Wind Speed8.5 mph15 mph (1:54 pm)
Wind Gust23 mph (1:54 pm)
Weather ElementAverage
Visibility10 mi
Wind DirectionSSW (186.5 °)

Weather ElementTotal
Precipitation---
Heating Degree Days7.5 (Base 65)
Growing Degree Days7.6 (Base 50)
Averaged from 26 records on January 11, 2013
WEATHER CONDITIONS BREAKOUT
WIND DIRECTION BREAKOUT
WEATHER BY HOUR - JANUARY 11, 2013
[ °C ]   °F
Local TimeTemperatureDewpointHumidityBarometerVisibilityWind DirectionWind SpeedGust SpeedPrecipitationEventsConditions
1:54 AM53.1 °F50.0 °F89 %29.80 in10.0 miSW (220°)5.8 mphMostly Cloudy
2:54 AM51.1 °F48.0 °F89 %29.83 in10.0 miWSW (250°)5.8 mphOvercast
3:54 AM51.1 °F46.9 °F86 %29.82 in10.0 miSW (230°)8.1 mphClear
4:54 AM52.0 °F46.0 °F80 %29.82 in10.0 miSW (230°)13.8 mph21.9 mphPartly Cloudy
5:15 AM51.8 °F46.4 °F82 %29.82 in10.0 miSW (220°)10.4 mphMostly Cloudy
5:54 AM52.0 °F46.0 °F80 %29.83 in10.0 miSSW (210°)10.4 mphOvercast
6:54 AM51.8 °F46.4 °F82 %29.85 in10.0 miSSW (210°)8.1 mphOvercast
7:54 AM51.1 °F46.0 °F83 %29.87 in10.0 miSSW (200°)9.2 mphMostly Cloudy
8:06 AM51.8 °F46.4 °F82 %29.87 in10.0 miSSW (210°)10.4 mphMostly Cloudy
8:34 AM53.6 °F46.4 °F77 %29.87 in10.0 miSSW (200°)11.5 mphScattered Clouds
8:54 AM53.1 °F46.0 °F77 %29.87 in10.0 miSSW (210°)8.1 mphOvercast
9:54 AM54.0 °F46.0 °F75 %29.86 in10.0 miSSW (210°)9.2 mphMostly Cloudy
10:54 AM55.0 °F46.0 °F72 %29.84 in10.0 miSouth (180°)6.9 mphMostly Cloudy
11:54 AM59.0 °F46.9 °F64 %29.81 in10.0 miSouth (170°)6.9 mphClear
12:54 PM63.0 °F46.9 °F56 %29.79 in10.0 miSouth (180°)6.9 mphClear
1:54 PM63.0 °F46.0 °F54 %29.78 in10.0 miSSW (200°)15.0 mph23.0 mphMostly Cloudy
2:54 PM64.0 °F46.0 °F52 %29.78 in10.0 miSouth (190°)11.5 mph18.4 mphMostly Cloudy
3:54 PM63.0 °F45.0 °F52 %29.76 in10.0 miSouth (170°)10.4 mphMostly Cloudy
4:54 PM62.1 °F45.0 °F53 %29.77 in10.0 miSouth (190°)9.2 mphClear
5:54 PM60.1 °F45.0 °F57 %29.78 in10.0 miSSE (160°)6.9 mphClear
6:54 PM57.9 °F46.0 °F65 %29.79 in10.0 miVariable6.9 mphClear
7:54 PM57.0 °F46.9 °F69 %29.79 in10.0 miSouth (180°)9.2 mphClear
8:54 PM57.0 °F46.9 °F69 %29.79 in10.0 miVariable5.8 mphClear
9:54 PM57.0 °F46.9 °F69 %29.80 in10.0 miSSW (200°)4.6 mphClear
10:54 PM57.9 °F46.9 °F67 %29.81 in10.0 miSW (220°)3.5 mphClear
11:54 PM57.0 °F46.0 °F67 %29.81 in10.0 miSSW (210°)5.8 mphClear
Hourly data recorded from KSUS, located miles away from St. Louis, Missouri







STORIES FROM OUR PARTNERS